[[{"header":{"parameterUnit":"m.s-1","parameterCategory":1,"la1":30.2991,"la2":30.254,"lo1":-89.0895,"lo2":-89.0444,"dy":0.0017,"dx":0.0017,"nx":28,"ny":28,"refTime":"2023-10-11T09:00:00:Z","depth":0,"parameterNumber":2,"parameterNumberName":"U-component_of_WINDS"},"data":[0,0,0,0,0,0,0,0,0,0,0,0,0,0,0,0,0,0,0,0,0,0,0,0,0,0,0,0,0,0,0,0,0,0,0,0,0,0,0,0,0,0,0,0,0,0,0,0,0,0,0,0,0,0,0,0,0,0,-3.7777,-3.7777,0,-3.7789,-3.7789,-3.7789,-3.7637,-3.7633,-3.7629,-3.7625,-3.7639,-3.7643,-3.7647,0,0,0,0,0,0,0,0,0,0,0,0,0,-3.7623,-3.7626,-3.7776,-3.7777,-3.7777,-3.7789,-3.7789,-3.7789,-3.7638,-3.7633,-3.7628,-3.7623,-3.7638,-3.7643,-3.7648,0,0,0,0,0,0,0,0,0,0,0,0,0,-3.7668,-3.7627,-3.7776,-3.7703,-3.7696,-3.7789,-3.7789,-3.7789,-3.7639,-3.7633,-3.7627,-3.7621,-3.7636,-3.7642,-3.7648,-3.7812,0,0,-3.7668,-3.7671,0,0,0,0,0,0,0,0,-3.7665,-3.7674,-3.7713,-3.7708,-3.7701,-3.7705,-3.7739,-3.7797,-3.7641,-3.7661,-3.7625,-3.7618,-3.7666,-3.767,-3.7686,-3.7813,-3.7813,-3.7668,-3.7672,-3.7675,-3.7677,0,0,0,0,0,0,0,-3.7662,-3.7672,-3.7781,-3.7714,-3.7707,-3.7669,-3.7669,-3.775,-3.7698,-3.7659,-3.7648,-3.7651,-3.7661,-3.768,-3.7685,-3.7814,-3.7668,-3.7674,-3.7678,-3.768,-3.8075,-3.8082,0,0,0,0,0,0,-3.7669,-3.7671,-3.7781,-3.7782,-3.7667,-3.7677,-3.7677,-3.771,-3.7697,-3.7689,-3.7656,-3.7644,-3.7672,-3.7678,-3.7685,-3.7875,-3.7675,-3.7681,-3.7684,-3.8069,-3.8077,-3.8084,0,0,0,0,0,0,-3.7666,-3.768,-3.778,-3.7723,-3.7733,-3.7686,-3.7725,-3.7714,-3.7732,-3.7695,-3.7685,-3.7685,-3.7667,-3.7676,-3.7781,-3.7874,-3.7684,-3.7689,-3.8061,-3.8071,-3.8081,-3.8259,0,0,0,0,0,0,-3.7663,-3.768,-3.7742,-3.7726,-3.7737,-3.7877,-3.7731,-3.7718,-3.7743,-3.7727,-3.7719,-3.7712,-3.7663,-3.7773,-3.7788,-3.7879,-3.7694,-3.8052,-3.8066,-3.8077,-3.8244,-3.8273,-3.8298,0,0,0,0,0,-3.7658,-3.7792,-3.7746,-3.776,-3.7813,-3.7883,-3.7889,-3.783,-3.7751,-3.7813,-3.7789,-3.7712,-3.7861,-3.7785,-3.78,-3.7895,-3.8046,-3.8062,-3.8076,-3.8232,-3.8268,-3.8298,0,0,0,0,0,0,-3.7821,-3.7789,-3.7737,-3.787,-3.7881,-3.7857,-3.7933,-3.787,-3.7903,-3.7886,-3.7812,-3.7811,-3.7929,-3.7922,-3.7838,-3.8053,-3.794,-3.7959,-3.8053,-3.8086,-3.8113,-3.8112,-3.77,0,0,0,0,0,-3.7873,-3.7932,-3.79,-3.8021,-3.8029,-3.7981,-3.8009,-3.7962,-3.797,-3.7974,-3.7958,-3.7969,-3.8017,-3.8051,-3.8095,-3.8242,-3.8238,-3.8315,-3.8342,-3.8365,-3.8382,-3.8459,-3.8493,-3.8134,-3.8133,-3.8133,0,0,-3.798,-3.7969,-3.8011,-3.8053,-3.8056,-3.8119,-3.7985,-3.8058,-3.8104,-3.7985,-3.8083,-3.8073,-3.8079,-3.8207,-3.8262,-3.8205,-3.848,-3.8384,-3.8402,-3.8407,-3.8478,-3.8512,-3.8543,-3.8144,-3.8142,-3.814,0,0,-3.8207,-3.8205,-3.8305,-3.831,-3.8315,-3.8282,-3.8307,-3.8293,-3.8281,-3.8379,-3.829,-3.8344,-3.8431,-3.8439,-3.8455,-3.8685,-3.8616,-3.8702,-3.8843,-3.892,-3.8948,-3.8973,-3.9055,-3.9085,-3.8719,-3.8719,-3.872,0,-3.8339,-3.8431,-3.8364,-3.8443,-3.8464,-3.8359,-3.8459,-3.8467,-3.8487,-3.8504,-3.8439,-3.8545,-3.8542,-3.867,-3.8727,-3.8743,-3.8768,-3.8702,-3.8949,-3.8973,-3.8995,-3.9073,-3.9104,-3.873,-3.8729,-3.8727,-3.8726,0,-3.8593,-3.8658,-3.8738,-3.876,-3.8789,-3.8879,-3.8826,-3.8865,-3.8816,-3.879,-3.8891,-3.8884,-3.8924,-3.895,-3.8903,-3.9072,-3.9036,-3.8962,-3.8847,-3.9041,-3.9113,-3.9142,-3.8745,-3.8741,-3.8738,-3.8735,0,0,-3.8924,-3.8907,-3.8937,-3.8945,-3.8943,-3.8993,-3.9077,-3.9116,-3.915,-3.9167,-3.9236,-3.9312,-3.9242,-3.9261,-3.9213,-3.9281,-3.9464,-3.9197,-3.9196,-3.9247,-3.9649,-3.9705,-3.9741,-3.9417,-3.9423,-3.9427,-3.9648,0,-3.9145,-3.9288,-3.9231,-3.9379,-3.9438,-3.9339,-3.9412,-3.9419,-3.9397,-3.9444,-3.942,-3.9475,-3.9379,-3.9389,-3.9451,-3.9429,-3.9543,-3.9412,-3.9481,-3.9485,-3.9483,-3.9778,-3.9837,-4.0046,-3.9676,-3.9681,-3.9684,0,-3.9422,-3.945,-3.9604,-3.9591,-3.9614,-3.9681,-3.9712,-3.9758,-3.9764,-3.9743,-3.9764,-3.9702,-3.9784,-3.967,-3.9782,-3.9694,-3.9719,-3.9712,-3.9719,-3.9723,-3.9596,-3.979,-4.0112,-4.0143,-3.9727,-3.9724,-3.9721,0,-3.9647,-3.9724,-3.9825,-3.9836,-3.9823,-3.9873,-3.987,-3.987,-3.9897,-3.9923,-3.994,-3.9977,-3.9997,-4.0027,-3.9976,-3.9898,-4.0096,-3.9978,-4.0081,-4.0083,-4.0127,-4.0125,-4.0458,-4.0145,-4.0144,-4.0143,-4.0143,0,-3.99,-3.9998,-3.9927,-3.999,-4.0097,-4.003,-4.0138,-4.0124,-4.0125,-4.0183,-4.0099,-4.0156,-4.0086,-4.0136,-4.0098,-4.0197,-4.0206,-4.0192,-4.0181,-4.02,-4.0202,-4.0215,-4.0199,-4.0152,-4.015,-4.0148,-4.0147,0,-4.017,-4.0126,-4.0231,-4.021,-4.0208,-4.0288,-4.027,-4.0327,-4.0299,-4.0375,-4.0388,-4.0345,-4.04,-4.0352,-4.0405,-4.0379,-4.0511,-4.0479,-4.0509,-4.05,-4.0606,-4.0597,-4.0959,-4.1003,-4.0662,-4.0665,-4.0668,0,-4.0334,-4.0407,-4.0395,-4.0428,-4.043,-4.0485,-4.0511,-4.0448,-4.048,-4.0492,-4.0548,-4.0596,-4.063,-4.0722,-4.0696,-4.0736,-4.0704,-4.0828,-4.0709,-4.0726,-4.0706,-4.0702,-4.0709,-4.0852,-4.0856,-4.0859,-4.0862,0,-4.063,-4.0605,-4.0646,-4.0681,-4.0715,-4.0739,-4.0757,-4.0788,-4.0724,-4.0763,-4.0818,-4.0845,-4.0899,-4.0947,-4.0979,-4.0976,-4.0909,-4.09,-4.0926,-4.0946,-4.096,-4.0954,-4.0575,-4.0892,-4.0889,-4.0887,-4.0885,-4.0884,-4.0852,-4.0912,-4.0913,-4.0962,-4.0968,-4.0987,-4.1039,-4.1018,-4.1062,-4.1101,-4.1061,-4.1128,-4.1132,-4.1167,-4.1172,-4.1223,-4.1172,-4.121,-4.1219,-4.1229,-4.1245,-4.0953,-4.1229,-4.1228,-4.1227,-4.1226,-4.1226,0,-4.1143,-4.1139,-4.1184,-4.1211,-4.125,-4.1183,-4.1199,-4.1236,-4.1296,-4.1305,-4.134,-4.1403,-4.145,-4.1427,-4.1467,-4.1513,-4.1483,-4.1526,-4.1522,-4.1522,-4.1289,-4.1262,-4.1549,-4.1549,-4.1549,-4.1549,-4.1549,-4.1549,-4.1299,-4.1398,-4.1372,-4.1473,-4.1467,-4.1532,-4.1547,-4.1563,-4.157,-4.1644,-4.1682,-4.1666,-4.1663,-4.1702,-4.1742,-4.1734,-4.1753,-4.1807,-4.1788,-4.157,-4.1539,-4.1508,-4.1483,-4.1811,-4.1812,-4.2017,-4.2019,-4.202]},{"header":{"parameterUnit":"m.s-1","parameterCategory":1,"la1":30.2991,"la2":30.254,"lo1":-89.0895,"lo2":-89.0444,"dy":0.0017,"dx":0.0017,"nx":28,"ny":28,"refTime":"2023-10-11T09:00:00:Z","depth":0,"parameterNumber":3,"parameterNumberName":"V-component_of_WINDS"},"data":[0,0,0,0,0,0,0,0,0,0,0,0,0,0,0,0,0,0,0,0,0,0,0,0,0,0,0,0,0,0,0,0,0,0,0,0,0,0,0,0,0,0,0,0,0,0,0,0,0,0,0,0,0,0,0,0,0,0,-1.3889,-1.389,0,-1.3933,-1.3933,-1.3934,-1.3966,-1.3966,-1.3967,-1.3967,-1.4009,-1.401,-1.4011,0,0,0,0,0,0,0,0,0,0,0,0,0,-1.3831,-1.3832,-1.3889,-1.389,-1.389,-1.3933,-1.3933,-1.3934,-1.3966,-1.3966,-1.3967,-1.3967,-1.4009,-1.401,-1.4011,0,0,0,0,0,0,0,0,0,0,0,0,0,-1.3864,-1.3832,-1.3889,-1.3912,-1.3914,-1.3933,-1.3933,-1.3934,-1.3966,-1.3966,-1.3967,-1.3967,-1.4009,-1.401,-1.4011,-1.401,0,0,-1.4015,-1.4016,0,0,0,0,0,0,0,0,-1.3862,-1.3866,-1.3908,-1.391,-1.3913,-1.3945,-1.3928,-1.396,-1.3966,-1.3946,-1.3967,-1.3967,-1.3987,-1.399,-1.3998,-1.4012,-1.4014,-1.4015,-1.4016,-1.4017,-1.4017,0,0,0,0,0,0,0,-1.3859,-1.3864,-1.3906,-1.3908,-1.3911,-1.3918,-1.3924,-1.3934,-1.3964,-1.3948,-1.395,-1.3955,-1.3989,-1.3996,-1.3999,-1.4015,-1.4015,-1.4016,-1.4017,-1.4018,-1.4029,-1.4029,0,0,0,0,0,0,-1.3854,-1.3862,-1.3905,-1.3908,-1.3888,-1.3919,-1.3925,-1.3934,-1.3964,-1.3969,-1.3955,-1.3957,-1.3994,-1.3997,-1.4,-1.4,-1.4017,-1.4018,-1.4019,-1.403,-1.4029,-1.4029,0,0,0,0,0,0,-1.3853,-1.3858,-1.3903,-1.3886,-1.3892,-1.392,-1.393,-1.3934,-1.3942,-1.3969,-1.3974,-1.3957,-1.3994,-1.3999,-1.4007,-1.4002,-1.4018,-1.402,-1.403,-1.403,-1.4029,-1.4,0,0,0,0,0,0,-1.3851,-1.3857,-1.3858,-1.3885,-1.3893,-1.391,-1.3929,-1.3935,-1.3944,-1.3947,-1.3973,-1.3977,-1.3995,-1.4005,-1.4009,-1.4004,-1.4021,-1.4031,-1.403,-1.4029,-1.4002,-1.3998,-1.3996,0,0,0,0,0,-1.3849,-1.3848,-1.3858,-1.3863,-1.3894,-1.391,-1.3914,-1.3935,-1.3944,-1.3944,-1.3961,-1.3976,-1.4002,-1.4006,-1.401,-1.4006,-1.4031,-1.403,-1.4029,-1.4003,-1.3999,-1.3996,0,0,0,0,0,0,-1.3818,-1.3852,-1.3863,-1.3871,-1.3888,-1.3916,-1.3917,-1.3931,-1.3945,-1.3947,-1.3972,-1.3977,-1.3983,-1.3995,-1.3999,-1.4006,-1.4019,-1.4018,-1.3997,-1.3994,-1.3991,-1.3987,-1.4022,0,0,0,0,0,-1.3813,-1.3823,-1.3852,-1.3856,-1.3864,-1.3889,-1.3896,-1.3911,-1.3929,-1.3936,-1.3954,-1.397,-1.3981,-1.3988,-1.4001,-1.4004,-1.4009,-1.4003,-1.4,-1.3997,-1.3996,-1.3997,-1.3994,-1.4025,-1.4025,-1.4025,0,0,-1.3801,-1.382,-1.3826,-1.385,-1.3865,-1.3874,-1.3894,-1.3904,-1.3911,-1.3937,-1.3946,-1.396,-1.3979,-1.3985,-1.3988,-1.3995,-1.3989,-1.3996,-1.3994,-1.3994,-1.3996,-1.3993,-1.399,-1.4025,-1.4025,-1.4025,0,0,-1.3784,-1.3801,-1.3805,-1.3819,-1.3841,-1.3857,-1.3858,-1.3884,-1.3894,-1.3904,-1.3923,-1.3931,-1.3951,-1.3964,-1.3973,-1.3959,-1.3973,-1.3962,-1.3947,-1.3947,-1.3945,-1.3942,-1.3936,-1.3933,-1.3962,-1.3962,-1.3962,0,-1.3766,-1.3782,-1.3806,-1.3814,-1.3823,-1.3848,-1.3852,-1.3864,-1.3888,-1.3894,-1.3902,-1.3926,-1.3941,-1.3949,-1.3946,-1.3953,-1.3953,-1.3959,-1.3943,-1.3941,-1.394,-1.3934,-1.3931,-1.396,-1.396,-1.396,-1.3961,0,-1.3758,-1.3769,-1.377,-1.3793,-1.3803,-1.3809,-1.3832,-1.3839,-1.3853,-1.3868,-1.3876,-1.3895,-1.3911,-1.3914,-1.3928,-1.3923,-1.3927,-1.3939,-1.3952,-1.3935,-1.3929,-1.3927,-1.3958,-1.3958,-1.3959,-1.3959,0,0,-1.3724,-1.3759,-1.3759,-1.3769,-1.3794,-1.3802,-1.3808,-1.3824,-1.3829,-1.3844,-1.3849,-1.3865,-1.3876,-1.3886,-1.3901,-1.3902,-1.3887,-1.3913,-1.3914,-1.3906,-1.3882,-1.3871,-1.3868,-1.3897,-1.3897,-1.3897,-1.3879,0,-1.371,-1.3723,-1.3744,-1.375,-1.3759,-1.3782,-1.3787,-1.3802,-1.3817,-1.3825,-1.3841,-1.3851,-1.3865,-1.3871,-1.3873,-1.3889,-1.3882,-1.3891,-1.39,-1.39,-1.3893,-1.3866,-1.3856,-1.3839,-1.3878,-1.3877,-1.3877,0,-1.3695,-1.3709,-1.3716,-1.3739,-1.3744,-1.3748,-1.3763,-1.3772,-1.3789,-1.38,-1.381,-1.3826,-1.3833,-1.3846,-1.3854,-1.3859,-1.3864,-1.3873,-1.3872,-1.3873,-1.3887,-1.3864,-1.3834,-1.383,-1.3875,-1.3875,-1.3875,0,-1.3667,-1.3688,-1.3694,-1.3702,-1.373,-1.3732,-1.3744,-1.3761,-1.3769,-1.3782,-1.3787,-1.38,-1.3807,-1.3817,-1.3836,-1.3844,-1.3841,-1.3857,-1.3849,-1.3848,-1.3846,-1.3846,-1.3814,-1.3852,-1.3852,-1.3852,-1.3852,0,-1.3648,-1.3651,-1.3682,-1.3686,-1.3689,-1.3712,-1.3715,-1.3728,-1.3743,-1.3749,-1.377,-1.3775,-1.3801,-1.3808,-1.3823,-1.3826,-1.383,-1.3837,-1.3841,-1.3834,-1.3833,-1.3837,-1.3838,-1.3851,-1.3852,-1.3852,-1.3852,0,-1.3617,-1.3638,-1.3646,-1.3671,-1.3678,-1.3679,-1.37,-1.3704,-1.3719,-1.3726,-1.3729,-1.3752,-1.3762,-1.3782,-1.3797,-1.3807,-1.3806,-1.3814,-1.38,-1.3802,-1.3792,-1.3792,-1.3761,-1.3757,-1.3799,-1.3799,-1.3798,0,-1.3603,-1.3606,-1.3631,-1.3637,-1.3647,-1.3656,-1.3664,-1.3686,-1.3693,-1.3712,-1.3713,-1.3725,-1.3735,-1.3749,-1.3766,-1.3778,-1.3785,-1.3773,-1.3786,-1.3779,-1.3782,-1.3781,-1.3781,-1.3769,-1.3769,-1.3769,-1.3768,0,-1.3576,-1.3586,-1.3596,-1.361,-1.3618,-1.363,-1.3643,-1.3646,-1.3671,-1.3678,-1.3688,-1.3696,-1.3711,-1.3721,-1.3735,-1.3746,-1.376,-1.3764,-1.3762,-1.3755,-1.3746,-1.3749,-1.379,-1.3764,-1.3765,-1.3765,-1.3765,-1.3765,-1.3552,-1.3554,-1.3572,-1.3583,-1.3595,-1.3606,-1.361,-1.3625,-1.3634,-1.3648,-1.3661,-1.367,-1.3685,-1.3705,-1.3715,-1.3721,-1.3728,-1.3726,-1.3726,-1.3724,-1.3721,-1.3747,-1.3724,-1.3724,-1.3724,-1.3724,-1.3724,0,-1.3524,-1.3536,-1.3545,-1.3562,-1.357,-1.3584,-1.3599,-1.3604,-1.3611,-1.3625,-1.3634,-1.3645,-1.3654,-1.3673,-1.3684,-1.3685,-1.3691,-1.3687,-1.3686,-1.3688,-1.3715,-1.3714,-1.3681,-1.3681,-1.3681,-1.3681,-1.3681,-1.3681,-1.351,-1.3515,-1.3526,-1.3536,-1.3549,-1.3557,-1.3564,-1.3574,-1.3584,-1.3595,-1.3603,-1.3615,-1.363,-1.3642,-1.3651,-1.3656,-1.3658,-1.3651,-1.3658,-1.3682,-1.3686,-1.369,-1.3689,-1.3652,-1.3652,-1.363,-1.363,-1.363]}]]